"2022-08-13 00:01:00",737662,-7.050776,-7.267058,-71.03491,18.98454,-40.00307,19.00802,-1.48011,-1.73388,-79.48706,18.39395,0,0.004,7999,0,0,0,11.77028,14.8862,14.86774,19.19913,19.76573,19.29312,14.40491,15.35533,13.41043,23.27091,"NAN","NAN",21.09188,-22.12893,-3.013293,-3.144305,-4.510955,0.9391528,25.83822,27.88177,26.2519,37.25631,25.73197,28.00609,29.99087,35.75982,33.79087,0.2382486,0.3022199,0.2507266,0.6706083,0.2350826,0.3063006,0.374374,0.6035485,0.5200936,1.000102,15.28813,13.19885,342,373.1,330.2,-42.73,11.66
"2022-08-13 00:02:00",737663,-6.997036,-7.235185,-71.03501,18.9421,-40.39532,18.95524,-1.66611,-1.733882,-79.62077,18.33154,0,0.004,7999,0,0,0,11.79663,14.83349,14.80844,19.19913,19.75918,19.29312,14.40181,15.35881,13.41043,23.27808,"NAN","NAN",21.09517,-22.14992,-3.025234,-3.163958,-4.528866,0.939151,25.83595,27.88177,26.25416,37.25857,25.72067,28.00157,29.99313,35.7666,33.78409,0.2381811,0.3022199,0.2507955,0.6707119,0.2347467,0.3061518,0.3744548,0.6038452,0.5198156,1.000051,15.26327,13.18791,341.7,372.4,329.7,-42.5,11.53
"2022-08-13 00:03:00",737664,-7.018534,-7.203313,-71.37837,18.88625,-40.89967,18.8961,-1.478198,-1.733887,-79.4874,18.31534,0,0.004,7999,0,0,0,11.92448,14.78076,14.77252,19.19913,19.75262,19.29312,14.4018,15.35185,13.40387,23.28524,"NAN","NAN",21.09517,-22.17265,-3.035469,-3.181973,-4.545925,0.9391418,25.83595,27.88854,26.2519,37.25406,25.72293,28.01288,29.98861,35.76434,33.78409,0.2381811,0.3024419,0.2507266,0.6705046,0.2348139,0.3065238,0.3742934,0.6037463,0.5198155,1.000076,15.25913,13.19092,341.1,371.6,329.7,-41.67,11.37
"2022-08-13 00:04:00",737665,-7.093771,-7.192689,-71.1496,18.8663,-40.73159,18.87663,-1.478198,-1.733887,-79.4874,18.2562,0,0.004,7999,0,0,0,12.12751,14.72187,14.71012,19.19913,19.75591,19.29312,14.39505,15.36229,13.39731,23.26462,"NAN","NAN",21.09517,-22.19189,-3.044851,-3.200806,-4.564689,0.9391418,25.83369,27.87498,26.2519,37.25631,25.71615,28.00384,29.99087,35.77564,33.78635,0.2381136,0.3019979,0.2507266,0.6706082,0.2346124,0.3062262,0.374374,0.6042413,0.5199082,1.000051,15.23842,13.19276,341.2,371.7,329.4,-42.15,11.38
"2022-08-13 00:05:00",737666,-7.136837,-7.192764,-70.57792,18.80793,-40.28353,18.82106,-1.417508,-1.733893,-79.3541,18.23649,0,0.004,7999,0,0,0,11.82299,14.65636,14.63461,19.19913,19.74933,19.29312,14.3885,15.35881,13.40715,23.21562,"NAN","NAN",21.09517,-22.21404,-3.055978,-3.219681,-4.580953,0.9391419,25.82917,27.88402,26.25642,37.25631,25.72519,28.00384,29.98861,35.76886,33.78635,0.2379786,0.3022939,0.2508644,0.6706082,0.2348811,0.3062262,0.3742934,0.6039442,0.5199082,1.000102,15.21772,13.19171,341.4,371.8,329.4,-42.3,11.41
"2022-08-13 00:06:00",737667,-7.212112,-7.224675,-70.46358,18.76547,-40.05945,18.7887,-1.728879,-1.733895,-79.22056,18.17409,0,0.004,7999,0,0,0,11.89845,14.64978,14.63133,19.19913,19.75262,19.29312,14.40199,15.35881,13.40059,23.20635,"NAN","NAN",21.09517,-22.23596,-3.067927,-3.237703,-4.59717,0.939142,25.82691,27.88177,26.25868,37.25858,25.71841,28.00384,29.99087,35.7666,33.78635,0.2379111,0.3022199,0.2509332,0.6707119,0.2346796,0.3062263,0.374374,0.6038452,0.5199082,1.000077,15.21357,13.18615,341.3,371.8,329.2,-42.61,11.42
"2022-08-13 00:07:00",737668,-7.212124,-7.214063,-70.40643,18.72581,-40.22755,18.72934,-1.356094,-1.733896,-78.55265,18.15108,0,0.004,7999,0,0,0,11.83607,14.6301,14.63171,19.17614,19.74276,19.28983,14.39524,15.36229,13.39403,23.20635,"NAN","NAN",21.09517,-22.25702,-3.078173,-3.255729,-4.614244,0.9391654,25.82465,27.88177,26.25416,37.25631,25.71841,28.00384,29.99087,35.77112,33.78635,0.2378436,0.3022199,0.2507955,0.6706082,0.2346796,0.3062262,0.374374,0.6040432,0.5199082,1.000077,15.19474,13.18611,341.1,371.3,329.7,-41.57,11.32
"2022-08-13 00:08:00",737669,-7.20144,-7.203503,-70.34932,18.72253,-40.17157,18.72958,-1.792567,-1.733898,-78.81993,18.09852,0,0.004,7999,0,0,0,11.78743,14.60054,14.62552,19.17614,19.73948,19.29312,14.40218,15.37273,13.40059,23.20993,"NAN","NAN",21.09517,-22.27817,-3.089283,-3.273767,-4.631336,0.9391418,25.82465,27.88177,26.2519,37.25631,25.72067,28.00157,29.99087,35.77565,33.78409,0.2378436,0.30222,0.2507266,0.6706082,0.2347467,0.3061518,0.374374,0.6042412,0.5198155,1.000089,15.18683,13.18787,341.2,371.4,329.2,-42.19,11.33
"2022-08-13 00:09:00",737670,-7.158447,-7.118505,-70.34931,18.6841,-40.33966,18.71998,-1.605932,-1.733898,-78.64181,18.08537,0,0.004,7999,0,0,0,11.80021,14.57426,14.56277,19.16303,19.74933,19.29312,14.39505,15.37273,13.3842,23.20007,"NAN","NAN",21.09517,-22.30003,-3.098665,-3.29342,-4.648394,0.9391888,25.82917,27.88402,26.24512,37.26083,25.72293,28.00157,29.99087,35.7666,33.77957,0.2379786,0.302294,0.2505201,0.6708155,0.2348139,0.3061518,0.374374,0.6038452,0.5196303,1.000089,15.16613,13.18787,340.9,371.2,329.3,-41.91,11.29
"2022-08-13 00:10:00",737671,-7.072435,-7.054733,-70.74967,18.66792,-40.39568,18.67777,-1.47967,-1.733898,-78.7754,18.08208,0,0.004,7999,0,0,0,11.80365,14.5677,14.5699,19.13345,19.74958,19.28655,14.39524,15.38316,13.39075,23.17707,"NAN","NAN",21.09517,-22.31918,-3.10974,-3.312239,-4.665432,0.9392356,25.82239,27.87724,26.25642,37.25857,25.72519,28.00609,29.99087,35.7666,33.77957,0.2377762,0.3020719,0.2508644,0.6707119,0.2348811,0.3063006,0.374374,0.6038452,0.5196303,1.000115,15.1537,13.18778,340.5,370.9,329.1,-41.75,11.23
"2022-08-13 00:11:00",737672,-7.02943,-6.980349,-70.57809,18.66817,-40.67582,18.66817,-1.417089,-1.733898,-78.55274,18.03936,0,0.004,7999,0,0,0,11.76464,14.5677,14.5699,19.12361,19.72989,19.28326,14.4018,15.37292,13.39075,23.14424,"NAN","NAN",21.09517,-22.34102,-3.119972,-3.329432,-4.681633,0.9392825,25.82239,27.8795,26.24738,37.25857,25.71615,28.00384,29.98861,35.76886,33.77731,0.2377761,0.3021459,0.250589,0.6707119,0.2346124,0.3062262,0.3742934,0.6039442,0.5195376,1.000077,15.13713,13.19698,340.6,370.5,329.1,-41.46,11.17
"2022-08-13 00:12:00",737673,-6.975702,-6.90599,-70.46368,18.66817,-40.84389,18.66464,-1.479838,-1.733897,-78.19646,18.00652,0,0.004,7999,0,0,0,11.72208,14.56442,14.56662,19.12033,19.72635,19.28655,14.40893,15.39708,13.37764,23.1311,"NAN","NAN",21.09517,-22.35947,-3.130219,-3.34746,-4.69871,0.9392825,25.82465,27.87724,26.25416,37.25858,25.72745,28.00384,29.99087,35.77338,33.77505,0.2378436,0.302072,0.2507955,0.6707119,0.2349483,0.3062262,0.374374,0.6041422,0.5194449,1.000064,15.11642,13.18973,340.7,370.3,329.3,-41.12,11.13
"2022-08-13 00:13:00",737674,-6.943523,-6.831684,-70.40643,18.66464,-40.7318,18.66792,-1.356478,-1.733896,-77.97374,18.00652,0,0.004,7999,0,0,0,11.94132,14.53159,14.54364,19.12033,19.72332,19.28655,14.40546,15.40752,13.3842,23.1311,"NAN","NAN",21.09517,-22.3815,-3.140478,-3.3655,-4.714952,0.9392827,25.82465,27.88177,26.25416,37.25857,25.72519,28.00384,29.98635,35.77338,33.77957,0.2378436,0.3022199,0.2507955,0.6707119,0.2348811,0.3062262,0.3742127,0.6041422,0.5196303,1.000077,15.11642,13.18537,340.8,370.5,329.5,-41.07,11.16
"2022-08-13 00:14:00",737675,-6.868284,-6.746686,-70.17765,18.66464,-40.61975,18.66817,-1.480904,-1.733896,-77.84015,18.00652,0,0.004,7999,0,0,0,11.86615,14.51187,14.52684,19.12033,19.71651,19.29312,14.396,15.41447,13.37764,23.1311,"NAN","NAN",21.09188,-22.39987,-3.151566,-3.383515,-4.731157,0.9393765,25.82239,27.88402,26.2519,37.26083,25.72519,28.01061,29.98861,35.77565,33.77957,0.2377761,0.3022939,0.2507266,0.6708157,0.2348811,0.3064494,0.3742934,0.6042412,0.5196303,1.000077,15.09383,13.1955,341,370.6,329.7,-41.06,11.18
"2022-08-13 00:15:00",737676,-6.803723,-6.746617,-70.74964,18.66112,-41.06799,18.67168,-1.730835,-1.733897,-78.15192,18.00323,0,0.004,7999,0,0,0,11.94476,14.53487,14.55312,19.12033,19.71651,19.28983,14.41258,15.40424,13.37764,23.1311,"NAN","NAN",21.09517,-22.41969,-3.160908,-3.402305,-4.748155,0.9393466,25.82465,27.87498,26.25416,37.25858,25.72293,27.99931,29.99087,35.77565,33.77957,0.2378436,0.3019979,0.2507955,0.6707119,0.2348139,0.3060775,0.374374,0.6042412,0.5196303,1.000077,15.08969,13.18193,340.4,370.2,329.3,-40.9,11.1
"2022-08-13 00:16:00",737677,-6.771442,-6.725333,-70.97843,18.69842,-41.34814,18.70428,-1.29557,-1.493078,-78.01834,18.00652,0,0.004,7999,0,0,0,12.01679,14.56442,14.5699,19.12033,19.71651,19.28983,14.41258,15.40752,13.37109,23.10809,"NAN","NAN",21.09517,-22.43887,-3.171988,-3.419492,-4.764348,0.9394138,25.82691,27.87498,26.2519,37.25858,25.72293,27.99931,29.98861,35.77565,33.77731,0.2379111,0.301998,0.2507266,0.6707119,0.2348139,0.3060775,0.3742934,0.6042412,0.5195376,1.000077,15.06898,13.21053,340.4,370.1,329.5,-40.64,11.08
"2022-08-13 00:17:00",737678,-6.76071,-6.693476,-71.03561,18.73711,-41.57224,18.74015,-1.669187,-1.444914,-78.01832,18.00652,0,0.004,7999,0,0,0,12.04955,14.57098,14.57318,19.12033,19.71676,19.29008,14.40602,15.411,13.37109,23.05911,"NAN","NAN",21.09188,-22.45822,-3.182238,-3.437523,-4.780576,0.9393906,25.82465,27.87498,26.25416,37.2631,25.72293,28.00157,29.99087,35.7666,33.77731,0.2378436,0.3019979,0.2507955,0.6709192,0.2348139,0.3061518,0.374374,0.6038454,0.5195376,1.000077,15.06898,13.18375,340.6,370,329.5,-40.64,11.07
"2022-08-13 00:18:00",737679,-6.78229,-6.714806,-70.9212,18.74696,-41.34811,18.74696,-1.856519,-1.444913,-78.15188,18.00652,0,0.004,7999,0,0,0,12.27879,14.58102,14.57974,19.11047,19.72408,19.28376,14.40602,15.40424,13.37109,23.05225,"NAN","NAN",21.09872,-22.47768,-3.191651,-3.45639,-4.796828,0.9394157,25.82465,27.87498,26.24964,37.25857,25.72745,28.00157,29.99087,35.77565,33.77505,0.2378436,0.301998,0.2506578,0.6707119,0.2349482,0.3061518,0.374374,0.6042412,0.5194449,1.000077,15.04412,13.18729,340.7,370.3,329.3,-41.03,11.12
"2022-08-13 00:19:00",737680,-6.760792,-6.704182,-70.74961,18.74696,-41.7403,18.74696,-1.732096,-1.444913,-78.37453,18.00652,0,0.004,7999,0,0,0,12.11177,14.58412,14.6093,19.09408,19.71399,19.29387,14.41586,15.411,13.37109,23.05225,"NAN","NAN",21.09571,-22.49604,-3.203592,-3.472768,-4.812181,0.9394157,25.82465,27.87724,26.2519,37.25858,25.72293,28.01061,29.99087,35.76886,33.77279,0.2378436,0.3020719,0.2507266,0.6707119,0.2348139,0.3064495,0.374374,0.6039442,0.5193523,1.000077,15.03283,13.20295,340.9,369.9,329.1,-40.85,11.05
"2022-08-13 00:20:00",737681,-6.707103,-6.693611,-71.37865,18.75049,-42.30052,18.74696,-1.42174,-1.444912,-78.81975,18.01309,0,0.004,7999,0,0,0,11.85632,14.60712,14.63555,19.07111,19.71071,19.27998,14.41586,15.40791,13.37437,23.05225,"NAN","NAN",21.09188,-22.51463,-3.214712,-3.490817,-4.829287,0.9394105,25.82013,27.87724,26.2519,37.26083,25.72293,27.99931,29.99087,35.77338,33.77053,0.2377086,0.3020719,0.2507266,0.6708155,0.2348139,0.3060775,0.374374,0.6041422,0.5192597,1.000077,15.02153,13.1866,340.3,369.4,328.7,-40.66,10.94
"2022-08-13 00:21:00",737682,-6.70713,-6.746761,-71.37864,18.77725,-42.63667,18.78382,-1.732936,-1.637566,-78.59708,18.01637,0,0.004,7999,0,0,0,11.50269,14.5874,14.63865,19.05139,19.70743,19.27669,14.4093,15.41447,13.37454,23.05583,"NAN","NAN",21.08203,-22.53566,-3.224101,-3.509658,-4.843797,0.939408,25.82465,27.87724,26.26094,37.25857,25.71841,27.99931,29.98861,35.78921,33.76827,0.2378436,0.3020719,0.2510021,0.6707119,0.2346796,0.3060775,0.3742934,0.6048353,0.519167,1.000077,15.01739,13.17928,340.4,369.2,329,-40.23,10.92
"2022-08-13 00:22:00",737683,-6.771616,-6.789255,-71.09262,18.8209,-42.69267,18.82652,-1.669818,-1.733892,-78.68609,18.03608,0,0.004,7999,0,0,0,11.41101,14.57755,14.64541,19.04482,19.70414,19.27694,14.41586,15.40463,13.37109,23.04568,"NAN","NAN",21.08887,-22.55311,-3.235183,-3.526848,-4.860847,0.9394085,25.82465,27.87724,26.25416,37.26083,25.72067,28.00384,29.98861,35.7779,33.77279,0.2378436,0.3020719,0.2507955,0.6708155,0.2347467,0.3062262,0.3742934,0.6043402,0.5193523,1.000077,14.99669,13.20868,341,369.4,329,-40.42,10.95
"2022-08-13 00:23:00",737684,-6.771587,-6.810474,-71.89324,18.83332,-42.91672,18.84718,-1.481364,-1.73389,-79.17582,18.06893,0,0.004,7999,0,0,0,11.64022,14.58758,14.6487,19.04153,19.69077,19.27012,14.41258,15.40791,13.37454,22.99962,"NAN","NAN",21.08531,-22.57227,-3.245407,-3.544031,-4.875329,0.9394116,25.81561,27.87046,26.25416,37.25631,25.71841,28.00384,29.98861,35.78242,33.77053,0.2375737,0.3018499,0.2507955,0.6706083,0.2346796,0.3062262,0.3742934,0.6045382,0.5192596,1.000077,14.98426,13.17997,340.2,369.3,328.7,-40.6,10.93
"2022-08-13 00:24:00",737685,-6.836078,-6.821099,-72.40799,18.85656,-43.42096,18.8709,-1.667999,-1.73389,-79.13129,18.08208,0,0.004,7999,0,0,0,11.76792,14.57793,14.60929,19.04506,19.70161,19.27037,14.4093,15.39479,13.37799,22.9832,"NAN","NAN",21.09598,-22.58976,-3.255643,-3.562865,-4.891535,0.9394116,25.82239,27.86368,26.25642,37.2631,25.72067,27.99253,29.98861,35.78017,33.77279,0.2377761,0.3016281,0.2508643,0.6709194,0.2347467,0.3058544,0.3742934,0.6044392,0.5193523,1.000077,14.97183,13.19102,339.9,368.9,328.8,-40.16,10.86
"2022-08-13 00:25:00",737686,-6.900557,-6.927334,-72.46505,18.91313,-43.75705,18.91313,-1.355115,-1.733887,-79.30926,18.08537,0,0.004,7999,0,0,0,11.77775,14.55786,14.56334,19.04506,19.69479,19.2744,14.40602,15.40463,13.37109,22.97336,"NAN","NAN",21.10282,-22.60808,-3.265871,-3.580054,-4.90773,0.9394073,25.81561,27.87272,26.25642,37.25631,25.71841,27.99931,29.98861,35.78243,33.77053,0.2375737,0.301924,0.2508643,0.6706083,0.2346796,0.3060775,0.3742934,0.6045383,0.5192598,1.000077,14.96806,13.18572,340.1,368.8,328.6,-40.18,10.84
"2022-08-13 00:26:00",737687,-7.083276,-7.076075,-72.35063,18.92932,-44.03716,18.93637,-1.292536,-1.733886,-78.95298,18.08537,0,0.004,7999,0,0,0,11.87925,14.49892,14.50421,19.04859,19.69832,19.28476,14.39618,15.39807,13.37109,22.97336,"NAN","NAN",21.10007,-22.62556,-3.276105,-3.597248,-4.922228,0.9394052,25.81787,27.87272,26.24738,37.26083,25.71841,27.99931,29.98861,35.7779,33.76149,0.2376412,0.3019239,0.250589,0.6708155,0.2346796,0.3060775,0.3742934,0.6043401,0.5188892,1.000115,14.94924,13.18208,340.3,368.7,329,-39.71,10.81
"2022-08-13 00:27:00",737688,-7.255268,-7.256711,-72.75094,18.98514,-44.48534,18.99244,-1.354169,-1.926538,-79.39823,18.1018,0,0.004,7999,0,0,0,11.80394,14.49216,14.49107,19.04506,19.6915,19.26808,14.39946,15.39479,13.38489,22.97007,"NAN","NAN",21.10336,-22.64576,-3.286353,-3.616096,-4.938453,0.9394061,25.81335,27.87498,26.25642,37.26083,25.71615,27.99931,29.99087,35.78017,33.75922,0.2375063,0.3019979,0.2508643,0.6708155,0.2346124,0.3060775,0.374374,0.6044393,0.5187966,1.000076,14.93267,13.17832,340.2,368.6,328.6,-39.93,10.79
"2022-08-13 00:28:00",737689,-7.395073,-7.426782,-73.60873,19.02224,-44.87746,19.01871,-1.477435,-2.022862,-79.62076,18.12152,0,0.004,7999,0,0,0,11.30626,14.49216,14.49107,19.04859,19.6915,19.25723,14.41258,15.38821,13.38489,22.95752,"NAN","NAN",21.09625,-22.66169,-3.294909,-3.633322,-4.952994,0.9394102,25.81561,27.87272,26.2519,37.25857,25.72293,27.99931,29.98861,35.78017,33.76149,0.2375737,0.3019239,0.2507266,0.6707119,0.2348139,0.3060775,0.3742934,0.6044391,0.5188891,1.000076,14.92439,13.18185,339.6,368.3,328.5,-39.76,10.74
"2022-08-13 00:29:00",737690,-7.534806,-7.639279,-72.69363,19.04524,-44.48527,19.05206,-1.104156,-2.071026,-79.35358,18.1412,0,0.004,7999,0,0,0,11.18511,14.46919,14.46482,19.05565,19.69175,19.26833,14.39618,15.3915,13.38489,22.92763,"NAN","NAN",21.09323,-22.6783,-3.305997,-3.648881,-4.968346,0.9394102,25.81109,27.86594,26.25416,37.2631,25.71615,28.00609,29.99087,35.78243,33.75922,0.2374388,0.3017021,0.2507955,0.6709192,0.2346124,0.3063006,0.374374,0.6045383,0.5187965,1.000089,14.91196,13.18185,340.6,368.9,328.9,-39.89,10.85
"2022-08-13 00:30:00",737691,-7.577776,-7.713629,-72.52207,19.09806,-44.59734,19.09806,-1.597898,-2.022863,-79.04189,18.1412,0,0.004,7999,0,0,0,11.32589,14.42979,14.43201,19.04582,19.67534,19.26858,14.38962,15.38822,13.39178,22.90464,"NAN","NAN",21.08968,-22.69745,-3.317072,-3.666882,-4.984533,0.9394127,25.81561,27.87046,26.24964,37.25857,25.71841,27.99705,29.99087,35.78243,33.76374,0.2375737,0.30185,0.2506578,0.6707119,0.2346796,0.3060031,0.374374,0.6045383,0.5189818,1.000089,14.89953,13.18814,341.1,369,329.2,-39.7,10.88
"2022-08-13 00:31:00",737692,-7.53477,-7.681742,-72.69366,19.10463,-44.7094,19.10134,-1.472677,-1.9747,-79.35361,18.16094,0,0.004,7999,0,0,0,11.6697,14.41336,14.41231,19.03244,19.6655,19.26505,14.3929,15.38165,13.40903,22.90883,"NAN","NAN",21.09022,-22.71492,-3.326452,-3.683256,-4.998175,0.939414,25.81109,27.86594,26.25416,37.25631,25.71162,27.99705,29.99313,35.78695,33.75696,0.2374388,0.301702,0.2507955,0.6706083,0.2344782,0.3060031,0.3744547,0.6047363,0.5187039,1.000102,14.88447,13.17982,341,368.9,329,-39.8,10.86
"2022-08-13 00:32:00",737693,-7.513267,-7.660487,-72.52206,19.10463,-44.54131,19.1011,-1.65918,-1.733882,-79.35359,18.15436,0,0.004,7999,0,0,0,11.61402,14.41027,14.40245,19.03597,19.66223,19.26176,14.39946,15.38493,13.40903,22.91241,"NAN","NAN",21.09022,-22.73063,-3.338388,-3.702084,-5.01352,0.9394144,25.81561,27.86594,26.25416,37.25858,25.71615,27.99931,29.98861,35.78921,33.75922,0.2375737,0.301702,0.2507955,0.6707119,0.2346124,0.3060775,0.3742934,0.6048353,0.5187965,1.000076,14.87694,13.17715,341.2,369.1,329,-40,10.89
"2022-08-13 00:33:00",737694,-7.437997,-7.671081,-73.72311,19.11777,-45.43772,19.10463,-1.59668,-1.733882,-80.15511,18.16423,0,0.004,7999,0,0,0,11.55836,14.37745,14.35648,19.00314,19.65895,19.25189,14.39618,15.37836,13.40558,22.91241,"NAN","NAN",21.09022,-22.74805,-3.347759,-3.720087,-5.027152,0.9394169,25.81335,27.87272,26.25416,37.26083,25.71615,27.99931,29.99087,35.78695,33.7547,0.2375063,0.3019239,0.2507955,0.6708155,0.2346124,0.3060775,0.374374,0.6047363,0.5186114,1.000077,14.86452,13.19117,340,368.2,328.2,-39.78,10.73
"2022-08-13 00:34:00",737695,-7.545483,-7.756079,-74.29504,19.17362,-45.43772,19.16706,-1.59668,-1.782045,-79.79887,18.16423,0,0.004,7999,0,0,0,11.09999,14.35775,14.3532,18.98368,19.65895,19.24556,14.39618,15.3751,13.41248,22.90344,"NAN","NAN",21.09022,-22.76466,-3.356289,-3.734827,-5.043357,0.9394169,25.81109,27.86368,26.25868,37.25858,25.71615,27.99479,29.98861,35.78469,33.74566,0.2374388,0.3016281,0.2509332,0.6707119,0.2346125,0.3059287,0.3742934,0.6046372,0.5182412,1.000064,14.85209,13.19485,339.8,368.6,328.6,-39.8,10.79
"2022-08-13 00:35:00",737696,-7.685196,-7.915432,-74.06661,19.20647,-45.49395,19.19662,-1.344716,-1.974708,-79.88829,18.19708,0,0.004,7999,0,0,0,10.96904,14.34134,14.35976,18.98392,19.65895,19.23873,14.3929,15.37836,13.42282,22.87268,"NAN","NAN",21.08364,-22.78121,-3.365661,-3.752831,-5.058695,0.9394117,25.81109,27.8682,26.2519,37.25631,25.71615,27.99705,29.98861,35.78695,33.75018,0.2374388,0.301776,0.2507266,0.6706083,0.2346125,0.3060031,0.3742934,0.6047363,0.5184262,1.000064,14.82724,13.18731,340.2,368.7,328.7,-39.8,10.82
"2022-08-13 00:36:00",737697,-7.73893,-7.979171,-74.81021,19.25576,-45.88618,19.24919,-1.219666,-1.97471,-80.24461,18.22334,0,0.004,7999,0,0,0,11.07381,14.33788,14.33351,18.98039,19.65895,19.24532,14.38962,15.37509,13.42627,22.85356,"NAN","NAN",21.08036,-22.79956,-3.376747,-3.770025,-5.074044,0.9394091,25.81335,27.8682,26.24964,37.25857,25.71388,27.99253,29.99087,35.78921,33.74792,0.2375063,0.301776,0.2506578,0.6707119,0.2345454,0.3058544,0.374374,0.6048353,0.5183337,1.000077,14.82724,13.18359,339.7,368.6,328.5,-39.9,10.8
"2022-08-13 00:37:00",737698,-7.792686,-8.053557,-75.4966,19.29519,-46.55855,19.27548,-1.591972,-2.022875,-81.00171,18.23977,0,0.004,7999,0,0,0,11.09345,14.33459,14.33351,18.98392,19.66249,19.23873,14.3898,15.3718,13.42972,22.85116,"NAN","NAN",21.08036,-22.81713,-3.387847,-3.787233,-5.086855,0.9394096,25.81109,27.86368,26.25642,37.25631,25.71388,27.99253,29.99313,35.79147,33.74566,0.2374388,0.3016281,0.2508643,0.6706082,0.2345453,0.3058544,0.3744547,0.6049343,0.5182412,1.000077,14.80841,13.18,339.3,368.1,327.8,-40.03,10.7
"2022-08-13 00:38:00",737699,-7.900237,-8.127999,-75.38235,19.34117,-46.95082,19.33788,-1.092262,-2.022878,-80.82372,18.26277,0,0.004,7999,0,0,0,11.34882,14.33459,14.33698,18.98392,19.65895,19.24203,14.38306,15.37509,13.43317,22.86219,"NAN","NAN",21.08036,-22.83215,-3.395546,-3.804455,-5.102242,0.9394121,25.81109,27.87046,26.24964,37.26762,25.70936,27.99705,29.99539,35.79147,33.74566,0.2374388,0.30185,0.2506578,0.6711268,0.234411,0.3060032,0.3745354,0.6049343,0.5182412,1.000077,14.80465,13.1894,339.6,368,328.1,-39.71,10.69
"2022-08-13 00:39:00",737700,-7.964729,-8.191749,-75.66832,19.38716,-47.06288,19.34773,-1.216693,-2.022878,-80.95731,18.30243,0,0.004,7999,0,0,0,11.14583,14.31487,14.33351,18.98392,19.66249,19.23873,14.40366,15.36525,13.43317,22.85503,"NAN","NAN",21.07379,-22.85051,-3.406634,-3.820832,-5.116742,0.9394121,25.81109,27.86594,26.25642,37.2631,25.71841,27.99253,29.99313,35.79373,33.74792,0.2374388,0.301702,0.2508643,0.6709194,0.2346796,0.3058544,0.3744548,0.6050334,0.5183337,1.000089,14.78394,13.19216,339.6,368,328.2,-39.57,10.68
"2022-08-13 00:40:00",737701,-8.039951,-8.255479,-75.84035,19.42,-46.83905,19.41343,-1.276942,-2.02289,-80.86874,18.32215,0,0.004,7999,0,0,0,11.31281,14.27219,14.33351,18.98392,19.65567,19.23544,14.40384,15.36525,13.43317,22.86607,"NAN","NAN",21.07707,-22.86707,-3.41686,-3.838018,-5.131227,0.9394066,25.81109,27.86368,26.24738,37.25858,25.71615,27.99479,29.99087,35.79373,33.74566,0.2374388,0.3016282,0.250589,0.6707119,0.2346124,0.3059287,0.374374,0.6050335,0.5182412,1.000077,14.7798,13.19474,339.6,368.6,328.4,-39.98,10.79
"2022-08-13 00:41:00",737702,-8.082936,-8.25547,-75.61166,19.42328,-47.00718,19.42,-1.712074,-2.022893,-80.8243,18.33271,0,0.004,7999,0,0,0,11.29971,14.30521,14.3171,18.98392,19.65239,19.23544,14.41003,15.35869,13.43317,22.84993,"NAN","NAN",21.07379,-22.88279,-3.427094,-3.853574,-5.146577,0.9394038,25.81335,27.85916,26.25642,37.2631,25.71388,27.99479,29.98861,35.79147,33.74566,0.2375063,0.3014802,0.2508644,0.6709192,0.2345453,0.3059287,0.3742934,0.6049343,0.5182412,1.000089,14.75494,13.19562,339.9,368.5,328.5,-39.79,10.77
"2022-08-13 00:42:00",737703,-8.072186,-8.223594,-75.66894,19.43643,-46.83915,19.43644,-1.524785,-1.97473,-81.00251,18.33247,0,0.004,7999,0,0,0,11.16876,14.28879,14.25471,18.96423,19.63598,19.23544,14.3971,15.37509,13.43317,22.79707,"NAN","NAN",21.07707,-22.90027,-3.437327,-3.871588,-5.159369,0.9394042,25.81335,27.85916,26.24964,37.25631,25.71615,27.99027,29.98861,35.78469,33.73662,0.2375063,0.3014802,0.2506578,0.6706082,0.2346124,0.30578,0.3742934,0.6046373,0.517871,1.000102,14.74741,13.19663,339.9,368.7,328.3,-40.25,10.82
"2022-08-13 00:43:00",737704,-8.039933,-8.191711,-76.18385,19.47916,-47.28748,19.4693,-1.834607,-1.782078,-81.35894,18.32895,0,0.004,7999,0,0,0,11.19166,14.26272,14.24487,18.94454,19.62612,19.23544,14.41715,15.34884,13.43317,22.79766,"NAN","NAN",21.07707,-22.91687,-3.44756,-3.88878,-5.174718,0.9394064,25.80883,27.86142,26.24964,37.25857,25.71615,27.99253,29.98861,35.78695,33.73436,0.2373714,0.3015541,0.2506578,0.6707119,0.2346124,0.3058544,0.3742934,0.6047363,0.5177785,1.000102,14.73235,13.19773,339.6,368.5,327.9,-40.36,10.77
"2022-08-13 00:44:00",737705,-7.996939,-8.202336,-76.35544,19.50242,-47.67967,19.49912,-1.461296,-1.733914,-81.53707,18.33951,0,0.004,7999,0,0,0,11.01161,14.24319,14.18248,18.93141,19.62284,19.23544,14.41752,15.34885,13.43317,22.7905,"NAN","NAN",21.08418,-22.93436,-3.456942,-3.905158,-5.188365,0.9394064,25.81109,27.85464,26.24964,37.25631,25.71615,27.99253,29.98861,35.79373,33.73436,0.2374388,0.3013324,0.2506578,0.6706082,0.2346124,0.3058544,0.3742934,0.6050334,0.5177785,1.000064,14.72407,13.18944,339.6,368.2,327.8,-40.2,10.73
"2022-08-13 00:45:00",737706,-7.953949,-8.202342,-76.52706,19.50242,-47.73572,19.49889,-1.584465,-1.733914,-81.71522,18.33951,0,0.004,7999,0,0,0,10.75954,14.18044,14.16298,18.91498,19.61955,19.23898,14.41406,15.34228,13.42989,22.79795,"NAN","NAN",21.08418,-22.95187,-3.46718,-3.921538,-5.202869,0.9394013,25.81109,27.8569,26.24964,37.25631,25.71388,27.99479,29.99087,35.79373,33.73436,0.2374388,0.3014063,0.2506578,0.6706082,0.2345453,0.3059287,0.374374,0.6050333,0.5177785,1.000127,14.7075,13.18502,339.4,368.2,327.6,-40.28,10.71